Regional Weather Roundup
Issued by NWS

Home | Current Version | Previous Version | Text Only | Print | Product List | Glossary On
Versions: 1 2 3 4 5 6 7 8 9 10 11 12 13 14 15 16 17 18 19 20 21 22 23 24 25 26 27 28 29 30 31 32 33 34 35 36 37 38 39 40 41 42 43 44 45 46 47 48 49 50
000
ASUS43 KLOT 200403
RWRIL

ILLINOIS REGIONAL WEATHER ROUNDUP
NATIONAL WEATHER SERVICE CHICAGO/ROMEOVILLE IL
1100 PM CDT THU OCT 19 2017

NOTE: "FAIR" INDICATES FEW OR NO CLOUDS BELOW 12,000 FEET WITH NO
SIGNIFICANT WEATHER AND/OR OBSTRUCTIONS TO VISIBILITY.

* THESE STATIONS ARE NOT UNDER NWS QUALITY CONTROL. THEY ALSO MAY NOT
  REPORT WEATHER SUCH AS PRECIPITATION OR FOG.

ILZ001-002-007-009-015-016-024-200500-
NORTHWEST ILLINOIS

CITY           SKY/WX    TMP DP  RH WIND       PRES   REMARKS
MOLINE         FAIR      60  50  69 CALM      30.10S
STERLING*      FAIR      50  43  77 E6          N/A
SAVANNA*       FAIR      54  42  64 S5        30.11S
$$

ILZ003-004-008-010-011-017-018-200500-
NORTH CENTRAL ILLINOIS

CITY           SKY/WX    TMP DP  RH WIND       PRES   REMARKS
ROCKFORD       FAIR      55  36  48 S8        30.14S
FREEPORT*      FAIR      55  37  51 SE7       30.13F
ROCHELLE*      FAIR      54  38  56 SE6       30.14S
DE KALB*       FAIR      55  35  46 SE10      30.16S
PERU*          FAIR      57  48  71 S7        30.14S
$$

ILZ005-006-012>014-019>023-200500-
NORTHEAST ILLINOIS

CITY           SKY/WX    TMP DP  RH WIND       PRES   REMARKS
CHICAGO-OHARE  FAIR      54  39  57 SE3       30.15S
CHICAGO-MIDWAY FAIR      59  35  40 SE6       30.16S
AURORA         FAIR      52  38  58 SE5       30.15S
LANSING*       FAIR      50  43  78 CALM      30.17S HAZE
JOLIET*        FAIR      58  36  44 SE5       30.16S
WAUKEGAN       FAIR      46  34  62 S5        30.14F
DUPAGE AIRPORT FAIR      51  39  63 SE3       30.15S
KANKAKEE*      FAIR      54  44  67 SE5       30.18S
WHEELING       FAIR      50  40  68 CALM      30.17S
MORRIS*        FAIR      55  37  51 SE5       30.15R
ROMEOVILLE*    FAIR      54  37  53 S8        30.16S
NORTHERLY ISL    N/A     56  51  84 CALM        N/A
$$

LMZ740>746-200500-
SOUTHERN LAKE MICHIGAN

STATION/POSITION SKY/WX   TEMP    WIND        PRES    VSBY  WAVE
                          AIR SEA DIR/SP/G                  HT/PER
                          (F)     (DEG/KT/KT) (MB)    (MI)  (FT/S)
SOUTHERN BUOY              61 61  170/ 12/ 14 1021.4          1/ 3
WILMETTE HARBOR            60 58  150/  8/ 10   N/A           1/ 2
HARRISON CRIB              61     170/ 12/ 12   N/A
BURNHAM HARBOR             56     130/  2/  4   N/A
CALUMET HARBOR             59     170/  2/  3 1020.7S
BURNS HARBOR               64     140/  9/ 13 1022.0S
MICHIGAN CITY              54     130/  9/ 10   N/A
MICHIGAN CITY 6N           57 58  140/  6/  8   N/A           1
ST. JOSEPH                 56 58  150/  8/ 10 1022.2S         1/ 4
$$

ILZ025>027-034>036-040-047-049-050-058-095>099-200500-
WEST-CENTRAL ILLINOIS

CITY           SKY/WX    TMP DP  RH WIND       PRES   REMARKS
GALESBURG*     FAIR      66  58  77 S6        30.13S
MACOMB*        FAIR      60  51  70 S8        30.14S
JACKSONVILLE*  FAIR      59  50  71 SE7       30.14F
PITTSFIELD*    FAIR      60  52  75 CALM      30.14F
$$

ILZ028>032-037-038-041>044-048-051>054-059>061-200500-
CENTRAL ILLINOIS

CITY           SKY/WX    TMP DP  RH WIND       PRES   REMARKS
BLOOMINGTON    FAIR      55  49  80 S8        30.18R
DECATUR        FAIR      59  49  69 S6        30.18R
PEORIA         FAIR      59  51  75 S5        30.14S
LACON*         FAIR      59  51  75 CALM      30.13S
LINCOLN*       FAIR      55  50  82 S3        30.16S
SPRINGFIELD    FAIR      60  51  72 S7        30.16R
TAYLORVILLE    FAIR      57  49  75 S6        30.17S
$$

ILZ033-039-045-046-055>057-062-063-200500-
EAST-CENTRAL ILLINOIS

CITY           SKY/WX    TMP DP  RH WIND       PRES   REMARKS
CHAMPAIGN      FAIR      57  49  74 S7        30.18S
DANVILLE*      FAIR      56  51  85 CALM      30.17S
RANTOUL*       FAIR      59  51  76 SE3       30.18S
MATTOON        FAIR      57  51  80 S6        30.18S
PARIS*         FAIR      54  50  86 S6        30.20S
$$

ILZ079-100>102-200500-
SOUTHWEST ILLINOIS

CITY           SKY/WX    TMP DP  RH WIND       PRES   REMARKS
ALTON          FAIR      56  51  82 CALM      30.17S
BELLEVILLE     CLEAR     56  51  82 CALM      30.20R
CAHOKIA*       FAIR      61  49  64 CALM      30.16S
SPARTA*        FAIR      60  51  72 SE6       30.19S
$$

ILZ064>066-069>071-074>076-080>082-084>086-088>090-092>094-200500-
SOUTH-CENTRAL ILLINOIS

CITY           SKY/WX    TMP DP  RH WIND       PRES   REMARKS
CARBONDALE     FAIR      50  49  96 S5        30.20R
CAIRO*         FAIR      49  49  99 CALM      30.20S
EFFINGHAM*     FAIR      54  52  94 CALM      30.21S
MARION         FAIR      58  52  81 CALM      30.21S
MT. VERNON     FAIR      47  47 100 CALM      30.20S
CENTRALIA*     FAIR      61  53  75 S7        30.19S
SALEM*         FAIR      63  51  65 S3        30.19S
METROPOLIS*    FAIR      51  50  97 CALM      30.23R
$$

ILZ067-068-072-073-078-083-087-091-200500-
SOUTHEAST ILLINOIS

CITY           SKY/WX    TMP DP  RH WIND       PRES   REMARKS
LAWRENCEVILLE  FAIR      58  52  80 CALM      30.21S
FLORA*         FAIR      56  51  83 CALM      30.20S
FAIRFIELD*     FAIR      55  52  89 CALM      30.20S
HARRISBURG*    FAIR      52  51  95 CALM      30.22S
ROBINSON*      FAIR      52  51  95 CALM      30.21S
CARMI*         FAIR      51  49  93 CALM      30.21S
$$

ABBREVIATIONS USED IN REMARKS
   TC - TEMPERATURE IN CELSIUS
  WCI - WIND CHILL INDEX
   HX - HEAT INDEX
  VSB - VISIBILITY
$$




USA.gov is the U.S. government's official web portal to all federal, state and local government web resources and services.